Temperature
19 19 19 19 19 20 20 20 20 20 20 20 20 19 19 19 19 19 19 19 19 18 18 18 18 18 18 18 18 18 18 18 18 18 18 18 18 17 17 17 17 17 17
20 19 19 19 19 20 20 20 20 20 20 20 19 19 19 19 19 19 19 19 18 18 18 18 19 18 18 18 18 18 18 18 18 18 17 17 17 17 17 17 17 17 17
20 20 19 19 19 20 20 20 20 19 19 19 19 19 19 19 19 19 19 19 19 19 18 18 18 18 18 18 18 18 18 18 17 17 17 17 17 17 17 17 17 17 17
20 20 19 19 19 19 19 19 19 19 19 19 19 19 19 19 19 19 19 19 19 19 18 18 18 18 18 18 18 18 18 17 17 17 17 17 17 17 17 17 17 17 17
20 20 19 19 19 19 19 19 19 19 19 19 19 19 19 19 19 19 18 18 18 18 18 18 18 18 18 18 18 17 17 18 17 17 17 17 17 17 17 17 17 17 17
20 19 19 19 19 19 19 19 19 19 19 19 19 19 19 18 18 18 18 18 18 18 18 18 18 18 18 18 17 17 17 17 17 17 17 17 17 17 17 17 17 17 17
19 19 19 19 19 19 19 19 19 19 19 19 19 19 18 18 18 18 18 18 18 18 18 18 18 18 18 17 17 17 17 17 17 17 17 17 17 17 17 17 17 17 17
19 19 19 19 19 19 19 19 19 19 19 19 18 18 18 18 18 18 18 18 18 18 18 18 18 18 18 17 17 17 17 17 17 17 17 17 17 17 17 17 17 17 17
19 19 19 19 19 19 19 19 19 19 19 18 18 18 18 18 18 18 17 17 18 18 18 18 18 17 17 17 17 17 17 17 17 17 17 17 17 17 17 17 17 17 17
19 19 19 19 19 19 19 19 19 18 18 18 18 18 18 18 18 17 17 17 17 17 17 17 17 17 17 17 17 17 17 17 17 17 17 17 17 17 17 17 17 17 17
19 19 19 19 19 19 19 18 18 18 18 18 18 18 18 17 17 17 17 17 17 17 17 17 17 17 17 17 17 17 17 17 17 17 17 17 17 17 17 17 17 17 17
19 19 19 19 19 19 18 18 18 18 18 18 18 17 17 17 17 17 17 17 17 17 17 17 17 17 17 17 17 17 17 17 17 17 17 17 17 17 17 17 17 17 17
19 19 19 19 19 18 18 18 18 18 18 17 17 17 17 17 17 17 17 17 17 17 17 17 17 17 17 17 17 17 17 17 17 17 17 17 17 17 17 17 17 17 17
19 19 19 18 18 18 18 18 18 18 17 17 17 17 17 17 17 17 17 17 17 17 16 16 16 16 16 16 17 17 17 17 17 17 17 17 17 17 17 17 17 17 17
19 19 19 18 18 18 18 18 18 17 17 17 17 17 17 16 16 16 16 16 16 16 16 16 16 16 16 16 16 16 16 16 16 16 17 17 17 17 17 17 17 17 17
19 19 19 18 18 18 18 18 17 17 17 17 17 17 16 16 16 16 16 15 15 15 15 15 15 15 16 16 16 16 16 16 16 16 16 16 17 17 17 17 17 17 17
19 19 19 18 18 18 17 17 17 17 17 17 17 16 16 16 16 15 15 15 15 15 15 15 15 15 15 15 15 15 15 15 16 16 16 16 16 16 16 17 17 17 17
19 19 19 18 18 18 17 17 17 17 17 16 16 16 16 15 15 15 15 14 14 14 14 14 14 14 14 15 15 15 15 15 15 15 16 16 16 16 16 16 16 16 16
19 18 18 18 18 18 17 17 17 17 16 16 16 15 15 15 15 14 14 14 14 14 14 14 14 14 14 14 14 14 15 15 15 15 15 16 16 16 16 16 16 16 16
18 18 18 18 18 18 17 17 17 17 16 16 15 15 15 15 14 14 14 14 13 13 13 13 13 13 14 14 14 14 14 14 15 15 15 15 16 16 16 16 16 16 16
17 18 18 18 18 18 17 17 17 17 16 16 15 15 15 14 14 14 13 13 13 13 13 13 13 13 13 14 14 14 14 14 14 14 15 15 15 15 15 15 15 15 15
18 18 18 18 18 18 17 17 17 17 16 16 15 15 14 14 14 13 13 13 13 13 13 13 13 13 13 13 13 14 14 14 14 14 14 15 15 15 15 15 15 15 15
17 18 18 18 18 18 17 17 17 16 16 15 15 15 14 14 14 13 13 13 13 13 12 13 13 13 13 13 13 13 13 13 14 13 14 14 14 14 15 15 15 15 15
18 18 18 18 18 18 17 17 17 16 16 16 15 15 14 14 13 13 13 13 12 12 12 12 12 12 12 12 12 12 12 12 13 13 13 13 14 14 14 14 14 15 15
18 18 18 18 18 18 17 17 17 16 16 15 15 15 14 14 13 13 13 13 12 12 12 12 12 12 12 12 12 12 12 12 12 12 13 13 13 13 14 14 14 14 14
18 18 18 18 18 17 17 17 17 16 16 15 15 15 14 14 13 13 13 13 12 12 12 12 12 12 11 11 11 11 11 11 11 12 12 12 13 13 13 13 13 14 14
Wind_Speed
7 10 17 17 18 18 19 19 19 18 18 18 17 16 16 15 14 13 12 11 11 10 10 10 10 10 10 10 10 10 10 10 10 11 12 13 13 15 15 16 16 15 17
10 14 18 18 18 18 18 18 18 17 17 17 16 15 15 14 13 12 11 11 10 10 10 9 9 9 10 10 10 10 10 10 10 11 12 12 13 14 15 16 15 14 17
12 14 18 18 18 18 18 17 17 16 16 15 14 14 13 12 11 11 10 10 9 9 9 9 9 9 9 10 10 9 9 9 10 11 11 10 12 14 15 15 16 16 16
12 14 16 18 18 18 17 17 16 16 15 14 13 12 11 11 10 9 9 9 9 8 8 8 9 9 9 9 9 9 9 9 10 10 8 8 10 13 14 15 15 16 15
10 13 16 19 18 17 17 16 15 15 14 13 12 11 10 10 9 9 8 8 8 7 7 7 7 8 8 8 7 7 7 8 9 9 8 8 9 14 15 15 15 15 15
8 11 16 18 18 17 16 16 15 14 13 12 11 10 9 8 8 7 6 6 6 6 6 6 6 6 6 6 6 6 6 7 8 7 8 8 10 13 14 15 15 15 14
8 10 15 17 17 17 16 15 14 14 13 12 11 9 8 7 7 6 5 5 5 4 4 5 5 5 5 4 4 4 5 6 7 7 8 8 9 13 14 14 15 14 14
8 9 13 17 17 16 16 15 14 13 12 11 10 8 7 6 5 5 4 4 4 3 3 3 4 4 3 3 2 3 4 5 6 6 8 8 10 13 14 14 15 14 13
7 7 9 12 14 15 15 14 13 12 11 10 9 8 7 6 5 4 3 3 3 3 3 3 3 3 3 2 1 1 3 5 6 5 7 8 10 12 13 14 14 14 14
5 5 6 8 10 11 12 13 12 11 10 9 8 7 6 4 3 3 2 2 2 3 3 3 4 3 3 2 2 1 2 4 5 4 5 8 11 13 13 14 14 14 14
6 4 4 6 7 9 9 10 10 10 9 8 6 6 5 4 3 2 1 1 2 2 2 2 2 2 2 1 1 0 1 3 4 4 5 8 11 13 14 14 15 15 14
8 6 4 5 6 7 7 8 8 8 8 8 7 7 7 6 5 4 4 3 2 1 1 0 0 1 0 0 1 1 2 2 2 3 6 8 11 13 15 15 15 15 15
7 7 5 5 5 5 5 7 7 8 8 8 8 8 8 7 6 6 5 5 5 4 4 3 3 3 2 1 1 1 1 2 2 3 5 8 10 13 14 16 16 16 16
7 6 6 5 4 5 6 6 7 7 6 6 7 8 7 5 5 5 5 4 4 4 4 3 3 3 3 2 1 0 0 1 2 3 4 7 10 13 14 16 17 17 16
7 6 6 6 5 5 5 5 6 6 6 7 7 7 7 5 3 4 4 5 5 4 4 3 3 3 3 3 2 0 1 1 2 3 4 7 9 12 14 15 17 17 17
6 6 6 6 6 6 4 4 5 6 8 7 6 6 6 6 5 4 4 4 5 5 4 4 3 2 2 2 2 1 1 1 2 3 5 6 7 10 13 16 16 17 17
7 6 6 7 6 6 5 5 6 7 7 6 6 6 6 6 6 5 3 3 4 5 5 5 4 4 2 2 2 2 1 2 2 4 5 6 7 9 12 14 16 16 16
7 6 6 7 7 7 5 5 6 7 7 6 6 6 6 6 6 6 4 3 4 5 5 3 3 2 3 3 2 2 2 2 3 4 5 6 6 7 9 12 14 16 16
8 7 6 6 8 7 6 5 6 6 5 5 5 5 5 6 6 6 4 4 5 5 4 3 3 2 2 3 2 2 2 2 3 3 3 4 6 6 6 8 11 14 16
7 7 7 7 7 7 5 5 4 4 3 4 4 4 5 5 6 6 5 4 4 4 3 3 3 3 2 2 2 2 3 3 3 3 3 3 3 4 4 5 6 9 13
7 7 7 8 7 7 4 4 4 3 2 2 3 4 5 5 5 5 4 3 3 3 3 2 2 3 4 3 2 3 3 3 4 5 4 4 4 3 2 3 4 6 7
9 8 8 8 8 7 5 4 3 3 2 2 1 2 4 4 5 4 4 3 2 3 3 3 3 2 3 4 2 2 3 4 4 5 5 6 6 6 5 4 2 3 5
10 10 10 8 8 7 6 5 4 4 3 2 1 1 2 4 4 4 4 3 3 2 2 2 2 2 2 3 3 2 2 0 2 3 4 5 6 6 5 6 6 4 3
11 9 8 8 8 7 7 7 7 5 4 4 3 2 2 2 3 5 5 4 3 2 2 1 2 1 2 2 2 2 1 1 0 2 3 4 5 6 6 5 6 7 6
9 8 8 8 7 7 7 8 7 5 3 2 2 2 1 1 2 4 6 5 3 2 2 2 2 1 1 1 1 1 2 2 1 1 2 4 4 4 5 4 5 6 7
8 8 8 8 7 7 8 7 8 8 6 5 4 3 2 1 1 2 5 5 4 3 2 2 2 2 1 1 1 1 1 1 1 1 1 2 3 3 4 3 3 5 7
Wind_Direction
154 157 151 144 136 131 127 125 123 121 121 120 121 122 123 124 125 126 125 122 120 118 113 109 106 105 105 103 101 100 101 104 108 112 115 119 123 123 123 121 118 117 118
144 153 152 146 140 135 131 128 126 125 124 124 125 125 126 126 127 128 126 124 120 116 113 110 108 108 105 104 103 102 103 106 110 114 118 121 125 126 125 123 122 123 123
139 149 152 148 143 138 134 131 129 129 129 128 128 129 129 129 130 129 127 126 123 120 117 114 111 109 107 105 105 103 104 107 111 112 112 115 125 129 129 127 127 126 126
139 145 152 149 145 142 138 136 134 134 134 133 133 133 133 133 134 134 131 129 127 124 122 120 117 113 110 107 106 104 105 108 112 113 111 119 128 135 133 131 130 130 130
131 143 154 151 149 146 143 140 139 138 138 139 139 139 140 141 142 140 137 135 134 131 130 126 123 120 116 114 110 107 106 109 114 114 117 123 128 139 137 135 134 132 132
123 140 153 152 150 148 146 143 142 142 142 143 144 145 147 148 147 146 144 143 143 143 138 134 131 128 124 120 116 111 107 110 113 121 126 132 137 144 143 140 137 135 134
129 138 149 150 150 148 147 146 146 147 148 149 150 151 153 153 154 154 154 153 151 153 152 147 144 140 136 129 119 113 107 114 118 128 138 143 149 150 148 144 142 141 140
131 132 146 151 151 150 150 150 151 151 151 152 154 155 156 156 157 161 160 160 166 174 173 173 169 161 153 142 120 107 107 111 121 135 147 153 159 156 154 150 147 147 146
120 124 134 147 152 153 153 153 153 152 152 152 152 153 156 157 159 165 173 181 186 190 196 197 200 196 185 179 168 122 121 119 124 142 158 165 170 166 163 159 155 154 153
115 114 122 133 141 147 152 153 153 152 151 150 153 156 156 151 155 166 182 206 209 211 214 217 223 226 221 210 206 187 133 124 138 151 164 176 179 177 173 170 166 163 162
143 124 121 126 131 137 144 152 150 147 145 139 137 135 122 101 79 55 32 236 230 237 235 239 241 240 240 235 238 160 113 136 160 171 179 187 188 188 184 179 176 172 170
165 160 145 142 140 142 146 131 123 118 115 110 107 104 96 88 74 61 40 33 29 322 284 304 317 337 355 353 339 79 120 166 188 199 202 201 198 197 193 188 184 181 179
167 170 163 154 146 141 125 123 115 110 108 106 108 107 99 86 71 58 49 35 34 33 35 35 41 33 37 52 62 102 162 187 205 207 212 214 208 204 201 197 191 187 186
163 173 164 151 140 140 129 124 120 117 113 110 111 110 104 87 69 56 50 41 41 36 39 39 37 33 31 32 60 126 189 218 227 215 230 237 223 213 208 201 196 193 192
166 170 163 152 149 140 130 130 126 123 122 122 117 112 111 104 89 73 57 52 49 50 54 46 39 30 27 22 17 41 196 239 263 244 247 255 243 225 216 206 201 197 195
166 166 156 154 148 140 138 128 128 129 127 123 119 117 112 107 100 83 61 48 42 44 55 61 56 42 13 7 359 339 294 268 265 263 259 265 261 239 225 214 210 206 202
164 157 157 155 141 138 138 137 135 137 134 128 126 122 113 107 101 94 76 53 38 45 60 63 53 46 30 13 358 346 346 319 296 281 271 265 265 254 238 226 219 214 212
155 157 166 159 145 140 138 135 136 141 136 131 132 126 118 111 110 101 87 63 48 56 60 63 45 41 24 13 354 344 347 333 312 293 274 263 258 256 247 234 224 220 219
158 157 160 147 144 140 133 130 130 128 127 133 134 131 126 115 111 102 90 72 64 62 51 57 51 46 22 0 340 359 359 347 335 330 304 274 258 254 252 246 236 230 229
153 155 157 144 136 129 120 109 100 99 106 129 141 147 141 129 121 107 93 77 72 67 52 50 57 43 29 353 350 6 3 2 11 15 357 338 307 276 259 254 248 245 239
160 160 159 150 147 143 137 136 137 147 147 147 169 167 156 147 139 121 106 88 77 74 61 52 64 44 25 3 27 7 357 10 28 28 18 23 18 3 331 269 253 250 251
176 176 167 164 161 164 155 147 143 135 140 147 148 162 177 167 157 143 129 116 103 88 63 46 52 59 28 25 51 58 13 0 1 12 17 30 27 27 25 13 329 272 258
186 186 179 174 167 164 146 122 102 83 72 89 137 188 209 192 180 163 154 142 128 111 97 68 59 78 55 26 38 92 98 15 320 337 7 19 18 27 20 18 19 4 334
196 184 172 172 166 161 154 153 152 157 170 193 185 189 204 199 193 184 171 159 147 131 124 105 93 85 96 49 27 40 76 149 80 338 336 355 4 19 11 12 13 11 8
186 178 171 166 166 164 163 163 156 155 166 155 149 169 185 217 210 196 179 168 165 159 155 142 126 116 115 120 77 57 65 57 69 108 324 335 344 346 354 357 5 8 10
176 174 169 169 175 170 167 166 165 166 163 159 170 175 189 212 237 197 180 177 179 178 184 185 169 158 157 147 147 149 145 138 146 139 253 311 320 316 327 336 357 0 7
Height
1529 1532 1536 1538 1540 1542 1544 1545 1546 1547 1548 1549 1550 1551 1551 1552 1552 1553 1553 1554 1554 1554 1554 1554 1555 1555 1555 1555 1555 1555 1556 1556 1556 1556 1557 1557 1558 1559 1560 1561 1562 1563 1565
1528 1532 1536 1539 1541 1544 1545 1547 1548 1549 1550 1551 1552 1552 1553 1553 1554 1554 1555 1555 1555 1556 1556 1556 1556 1556 1556 1556 1557 1557 1557 1558 1558 1558 1559 1559 1560 1561 1562 1563 1564 1565 1567
1529 1533 1537 1540 1542 1545 1546 1548 1549 1551 1552 1552 1553 1554 1554 1555 1555 1556 1556 1556 1557 1557 1557 1557 1558 1558 1558 1558 1559 1559 1559 1560 1560 1560 1561 1561 1562 1563 1564 1565 1566 1567 1569
1531 1534 1537 1541 1543 1546 1547 1549 1550 1552 1553 1554 1554 1555 1556 1556 1556 1557 1557 1558 1558 1558 1559 1559 1559 1559 1560 1560 1561 1561 1561 1562 1562 1562 1563 1563 1564 1565 1566 1567 1568 1570 1571
1532 1535 1539 1542 1544 1546 1548 1550 1551 1552 1553 1554 1555 1556 1557 1557 1558 1558 1558 1559 1559 1560 1560 1560 1561 1561 1561 1562 1562 1563 1563 1564 1564 1564 1565 1565 1566 1567 1568 1569 1570 1572 1573
1534 1537 1540 1543 1545 1547 1549 1551 1552 1553 1554 1555 1556 1557 1557 1558 1559 1559 1559 1560 1560 1561 1561 1561 1562 1562 1563 1563 1564 1565 1565 1566 1566 1566 1567 1567 1568 1569 1570 1571 1572 1573 1575
1535 1538 1541 1544 1546 1548 1550 1551 1553 1554 1555 1556 1557 1558 1558 1559 1559 1560 1560 1561 1561 1562 1562 1562 1563 1563 1564 1565 1565 1566 1566 1567 1567 1568 1568 1568 1569 1570 1571 1572 1573 1575 1576
1536 1539 1542 1544 1547 1548 1550 1552 1553 1554 1555 1556 1557 1558 1559 1559 1560 1561 1561 1561 1562 1562 1563 1563 1564 1564 1565 1565 1566 1567 1567 1568 1568 1569 1569 1570 1570 1571 1572 1573 1575 1576 1577
1537 1540 1542 1545 1547 1549 1551 1552 1553 1555 1556 1557 1558 1559 1559 1560 1560 1561 1561 1562 1562 1562 1563 1563 1564 1564 1565 1566 1566 1567 1568 1568 1569 1570 1570 1571 1571 1572 1573 1574 1576 1577 1578
1538 1541 1543 1545 1547 1549 1551 1553 1554 1555 1556 1557 1558 1559 1560 1560 1561 1561 1561 1561 1562 1562 1562 1563 1563 1564 1565 1565 1566 1567 1568 1568 1569 1570 1571 1571 1572 1573 1574 1575 1576 1577 1579
1538 1541 1544 1546 1548 1550 1551 1553 1554 1556 1557 1558 1558 1559 1559 1560 1560 1561 1561 1561 1561 1561 1562 1562 1563 1563 1564 1565 1565 1566 1567 1568 1569 1570 1570 1571 1572 1573 1574 1575 1577 1578 1579
1537 1541 1544 1546 1548 1550 1552 1553 1554 1556 1557 1558 1559 1559 1559 1560 1560 1560 1560 1560 1560 1560 1561 1561 1561 1562 1563 1563 1564 1565 1566 1567 1568 1569 1570 1570 1571 1572 1574 1575 1576 1578 1579
1538 1541 1543 1546 1549 1550 1552 1553 1555 1556 1557 1558 1559 1559 1559 1560 1560 1560 1559 1559 1559 1559 1559 1559 1560 1560 1561 1562 1563 1564 1565 1565 1566 1567 1568 1569 1570 1571 1573 1574 1575 1577 1579
1537 1541 1543 1546 1549 1551 1552 1554 1555 1556 1557 1558 1558 1559 1559 1559 1559 1559 1558 1558 1557 1557 1557 1558 1558 1558 1559 1560 1561 1562 1562 1563 1564 1565 1567 1568 1569 1570 1571 1573 1574 1576 1577
1537 1540 1543 1546 1548 1550 1552 1553 1555 1556 1557 1558 1558 1558 1558 1558 1558 1557 1557 1556 1556 1556 1556 1556 1557 1557 1558 1558 1559 1560 1561 1561 1562 1563 1564 1566 1567 1568 1569 1571 1572 1574 1576
1536 1539 1542 1545 1548 1550 1552 1553 1555 1556 1557 1557 1558 1558 1558 1557 1557 1556 1556 1555 1555 1555 1555 1555 1555 1555 1556 1556 1557 1558 1559 1559 1560 1561 1562 1563 1564 1565 1567 1569 1570 1572 1574
1536 1539 1542 1544 1547 1549 1552 1554 1555 1556 1557 1557 1558 1558 1557 1557 1556 1555 1554 1554 1553 1553 1553 1553 1554 1554 1554 1555 1555 1556 1556 1557 1558 1558 1559 1560 1561 1562 1564 1566 1567 1569 1571
1535 1538 1541 1544 1546 1549 1551 1553 1554 1556 1557 1557 1557 1557 1557 1556 1555 1554 1554 1553 1552 1552 1552 1552 1552 1552 1553 1553 1553 1554 1554 1555 1555 1556 1556 1557 1558 1560 1561 1562 1564 1566 1568
1534 1537 1540 1543 1546 1548 1551 1553 1554 1556 1557 1557 1557 1557 1557 1556 1555 1554 1553 1552 1552 1552 1551 1551 1551 1551 1551 1551 1552 1552 1552 1553 1553 1553 1554 1555 1556 1557 1558 1559 1561 1563 1564
1533 1537 1540 1542 1545 1548 1550 1552 1554 1555 1556 1557 1557 1557 1557 1556 1555 1554 1553 1552 1552 1551 1551 1551 1550 1550 1550 1550 1550 1551 1551 1551 1551 1551 1551 1552 1553 1554 1555 1557 1558 1560 1561
1532 1535 1538 1541 1544 1547 1549 1551 1552 1554 1555 1556 1556 1557 1556 1556 1555 1554 1553 1552 1552 1551 1551 1550 1550 1549 1549 1549 1549 1550 1550 1550 1550 1550 1550 1550 1551 1552 1553 1554 1555 1557 1558
1530 1534 1537 1540 1543 1546 1548 1550 1552 1553 1554 1555 1555 1556 1556 1556 1555 1554 1553 1553 1552 1551 1551 1550 1550 1549 1548 1548 1549 1549 1549 1551 1550 1550 1550 1549 1550 1550 1551 1552 1553 1555 1556
1529 1532 1536 1539 1542 1545 1547 1549 1551 1552 1553 1554 1554 1554 1555 1555 1554 1554 1553 1553 1552 1551 1551 1550 1549 1549 1548 1548 1548 1549 1549 1549 1550 1550 1549 1549 1549 1550 1550 1551 1552 1552 1553
1527 1531 1535 1538 1541 1544 1546 1548 1549 1550 1551 1552 1553 1553 1553 1554 1553 1553 1553 1553 1552 1552 1551 1550 1549 1548 1548 1548 1548 1548 1549 1549 1549 1549 1550 1549 1549 1549 1549 1550 1550 1551 1551
1526 1530 1534 1537 1540 1542 1545 1546 1548 1549 1550 1550 1551 1551 1552 1552 1552 1552 1552 1552 1552 1551 1550 1549 1549 1548 1548 1547 1547 1547 1547 1547 1548 1548 1548 1548 1549 1548 1548 1548 1549 1549 1549
1525 1529 1532 1535 1538 1541 1543 1545 1546 1547 1548 1548 1549 1549 1550 1550 1551 1551 1551 1551 1551 1550 1550 1549 1548 1548 1547 1547 1547 1546 1546 1546 1546 1547 1546 1546 1546 1547 1547 1547 1547 1547 1547